Starlink 30604

operational
NORAD ID: 58075 Int'l Des: 2023-160 Owner: SPXS Country: US Constellation: starlink
LEOCIRCULAR

Starlink 30604について

説明を読み込み中...

リアルタイム位置

3D地球を読み込み中...

次回通過

高度履歴

Altitude vs Time

uPlot chart will show altitude changes over time

軌道要素

1 58075U 23160A 25308.64003125 -.00000183 00000-0 14939-5 0 9990
2 58075 43.0032 40.0492 0001318 269.5451 90.5240 15.02537460114103
Epoch: Nov 4, 2025 • Age: 19 hours

現在のステータス

高度 566.7 km
速度 7.58 km/s
衛星直下点 -30.56°S, 61.17°E
打ち上げ日 Oct 18, 2023
運用期間 2 years
タイプ internet

技術仕様

分類 Payload
質量 730.00 kg
乾燥質量 700.00 kg
総質量 730.00 kg
長さ 0.30 m
直径 4.10 m
スパン 29.00 m
形状 Box + pan
製造者 SPXS
バスタイプ Starlink V2M
フェーズステータス In Orbit
所有者/国 SPXS/US

大規模コンステレーション

Loading constellations...